KF8LO-1 Weather Reports


time (UTC)temp
F
wind
direction
speed
knots
gust
knots
rain 1hr
in
rain 24hr
in
rain mn
in
humidity
%
barometer
mb
20260508043955 41 310 5.2 7.0 0.00 0.08 0.00 63
20260508043455 41 323 3.5 7.0 0.00 0.08 0.00 62
20260508042955 42 307 2.6 8.7 0.00 0.08 0.00 62
20260508042455 42 282 3.5 9.6 0.00 0.08 0.00 61
20260508041955 42 268 3.5 8.7 0.00 0.08 0.00 61
20260508041455 42 295 2.6 7.8 0.00 0.08 0.00 61
20260508040955 42 305 5.2 9.6 0.00 0.08 0.00 61
20260508040455 42 315 3.5 8.7 0.00 0.08 0.00 61
20260508035955 42 298 6.1 8.7 0.00 0.08 0.00 61
20260508035455 42 292 6.1 8.7 0.00 0.08 0.00 60
20260508034955 42 312 4.3 8.7 0.00 0.08 0.00 60
20260508034455 42 300 3.5 9.6 0.00 0.10 0.00 60
20260508033955 42 319 7.0 8.7 0.00 0.10 0.00 60
20260508033455 43 322 3.5 10.4 0.00 0.10 0.00 59
20260508032955 43 295 10.4 10.4 0.00 0.10 0.00 59
20260508032455 43 312 5.2 8.7 0.00 0.10 0.00 58
20260508031955 43 322 6.1 10.4 0.00 0.10 0.00 58
20260508031455 43 296 7.8 9.6 0.00 0.10 0.00 58
20260508030955 43 302 7.0 10.4 0.00 0.10 0.00 58
20260508030455 43 299 4.3 8.7 0.00 0.10 0.00 58
20260508025955 44 310 6.1 12.2 0.00 0.10 0.00 56
20260508025455 43 295 7.0 10.4 0.00 0.10 0.00 56
20260508024955 44 312 6.1 10.4 0.00 0.10 0.00 56
20260508024455 44 277 7.8 11.3 0.00 0.13 0.00 56
20260508023955 44 316 7.8 11.3 0.00 0.13 0.00 56
20260508023455 44 293 6.1 8.7 0.00 0.13 0.00 55
20260508022955 45 315 5.2 11.3 0.00 0.13 0.00 56
20260508022455 44 299 3.5 11.3 0.00 0.13 0.00 55
20260508021955 45 313 4.3 10.4 0.00 0.13 0.00 55
20260508021455 45 300 7.0 10.4 0.00 0.13 0.00 55
20260508020955 46 288 2.6 7.8 0.00 0.13 0.00 55
20260508020455 46 284 5.2 7.8 0.00 0.13 0.00 54
20260508015955 46 267 7.0 9.6 0.00 0.13 0.00 55
20260508015455 47 270 4.3 7.0 0.00 0.13 0.00 55
20260508014955 47 302 5.2 7.8 0.00 0.13 0.00 55
20260508014455 47 292 4.3 8.7 0.00 0.14 0.00 55
20260508013955 47 289 4.3 8.7 0.00 0.14 0.00 55
20260508013455 47 292 6.1 8.7 0.00 0.14 0.00 54
20260508012955 47 265 3.5 10.4 0.00 0.14 0.00 55
20260508012455 47 300 3.5 10.4 0.00 0.14 0.00 55
20260508011955 47 277 5.2 8.7 0.00 0.14 0.00 54
20260508011455 48 303 1.7 7.8 0.00 0.14 0.00 55
20260508010955 48 291 3.5 7.8 0.00 0.14 0.00 55
20260508010455 48 254 6.1 13.9 0.00 0.14 0.00 54
20260508005955 48 278 4.3 8.7 0.00 0.14 0.00 55
20260508005455 48 270 3.5 7.8 0.00 0.14 0.00 54
20260508004955 48 279 5.2 7.8 0.00 0.14 0.00 54
20260508004455 49 299 1.7 9.6 0.00 0.20 0.00 53
20260508003955 49 288 1.7 7.8 0.00 0.20 0.00 54
20260508003455 49 282 5.2 8.7 0.00 0.20 0.00 54
20260508002955 49 267 2.6 8.7 0.00 0.20 0.00 53
20260508002456 49 275 2.6 7.8 0.00 0.20 0.00 52
20260508001956 49 303 0.9 11.3 0.00 0.20 0.00 52
20260508001456 49 250 7.0 8.7 0.00 0.20 0.00 51
20260508000956 50 291 6.1 9.6 0.00 0.20 0.00 51
20260508000457 50 291 6.1 10.4 0.00 0.20 0.00 52
20260507235956 51 299 6.1 12.2 0.00 0.20 0.00 51
20260507235456 51 315 4.3 10.4 0.00 0.20 0.00 50
20260507234956 51 313 1.7 10.4 0.00 0.20 0.00 50
20260507234456 51 244 6.1 10.4 0.00 0.21 0.00 49
20260507233956 51 284 1.7 12.2 0.00 0.21 0.00 49
20260507233456 51 348 5.2 13.9 0.00 0.21 0.00 49
20260507232956 51 295 7.8 16.5 0.00 0.21 0.00 49
20260507232456 51 338 2.6 11.3 0.00 0.21 0.00 50
20260507231956 51 312 3.5 12.2 0.00 0.21 0.00 51
20260507231456 51 267 5.2 13.9 0.00 0.21 0.00 50
20260507230956 51 291 7.8 14.8 0.00 0.21 0.00 49
20260507230456 51 291 4.3 10.4 0.00 0.21 0.00 49
20260507225956 51 271 4.3 10.4 0.00 0.21 0.00 49
20260507225456 51 307 7.0 13.9 0.00 0.21 0.00 49
20260507224956 52 309 3.5 15.6 0.00 0.21 0.00 47
20260507224456 52 229 3.5 13.0 0.00 0.23 0.00 50
20260507223956 53 289 6.1 15.6 0.00 0.23 0.00 49
20260507223456 52 300 5.2 17.4 0.00 0.23 0.00 48
20260507222956 53 282 7.0 13.9 0.00 0.23 0.00 48
20260507222456 53 344 4.3 13.0 0.00 0.23 0.00 49
20260507221956 52 312 6.1 13.9 0.00 0.23 0.00 49
20260507221456 52 296 12.2 15.6 0.00 0.23 0.00 50
20260507220956 52 351 7.0 13.9 0.00 0.23 0.00 47
20260507220456 52 291 6.1 12.2 0.00 0.23 0.00 50
20260507215956 52 296 2.6 11.3 0.00 0.23 0.00 51
20260507215456 52 289 5.2 11.3 0.00 0.23 0.00 50
20260507214956 52 300 4.3 14.8 0.00 0.23 0.00 50
20260507214456 53 292 3.5 15.6 0.00 0.26 0.00 50
20260507213956 53 289 7.8 17.4 0.00 0.26 0.00 49
20260507213456 53 296 4.3 15.6 0.00 0.26 0.00 50
20260507212956 53 300 7.0 17.4 0.00 0.26 0.00 49
20260507212456 53 307 4.3 12.2 0.00 0.26 0.00 48
20260507211956 53 312 1.7 9.6 0.00 0.26 0.00 51
20260507211456 53 324 4.3 12.2 0.00 0.26 0.00 52
20260507210956 53 299 7.0 13.0 0.00 0.26 0.00 51
20260507210456 53 334 7.8 11.3 0.00 0.26 0.00 51
20260507205956 53 286 7.8 13.0 0.00 0.26 0.00 51
20260507205456 53 282 6.1 16.5 0.00 0.26 0.00 51
20260507204956 53 227 2.6 13.0 0.00 0.26 0.00 52
20260507204456 53 347 4.3 12.2 0.00 0.28 0.00 52
20260507203956 53 303 9.6 13.9 0.00 0.28 0.00 53
20260507203456 52 288 8.7 13.0 0.00 0.28 0.00 53
20260507202956 52 270 6.1 14.8 0.00 0.28 0.00 54
20260507202456 51 274 12.2 12.2 0.00 0.28 0.00 55
20260507201956 51 285 7.8 16.5 0.00 0.28 0.00 54
20260507201456 51 305 4.3 13.9 0.00 0.28 0.00 53
20260507200956 51 296 6.1 12.2 0.00 0.28 0.00 55
20260507200456 51 293 7.0 16.5 0.00 0.28 0.00 55
20260507195956 51 292 6.1 13.9 0.00 0.28 0.00 55
20260507195456 51 317 3.5 13.9 0.00 0.28 0.00 55
20260507194956 51 310 7.0 14.8 0.00 0.28 0.00 56
20260507194456 51 316 8.7 13.9 0.00 0.30 0.00 54
20260507193956 51 299 2.6 12.2 0.00 0.30 0.00 57
20260507193456 51 312 3.5 13.9 0.00 0.30 0.00 56
20260507192956 52 11 5.2 11.3 0.00 0.30 0.00 56
20260507192456 51 293 6.1 12.2 0.00 0.30 0.00 56
20260507191956 52 278 5.2 14.8 0.00 0.30 0.00 58
20260507191456 51 303 4.3 14.8 0.00 0.30 0.00 57
20260507190956 52 315 5.2 12.2 0.00 0.30 0.00 57
20260507190456 52 329 4.3 13.0 0.00 0.30 0.00 55
20260507185957 53 307 7.0 11.3 0.00 0.30 0.00 55
20260507185456 53 302 3.5 13.0 0.00 0.30 0.00 61
20260507184957 52 337 2.6 10.4 0.00 0.30 0.00 60
20260507184457 52 334 5.2 12.2 0.00 0.33 0.00 61
20260507183957 52 319 6.1 13.9 0.00 0.33 0.00 60
20260507183457 52 313 6.1 10.4 0.00 0.33 0.00 59
20260507182957 51 282 3.5 14.8 0.00 0.33 0.00 62
20260507182457 50 303 1.7 12.2 0.00 0.33 0.00 65
20260507181957 50 303 7.0 13.0 0.00 0.33 0.00 61
20260507181457 52 298 2.6 14.8 0.00 0.33 0.00 60
20260507180957 51 307 5.2 13.0 0.00 0.33 0.00 60
20260507180457 51 347 9.6 13.0 0.00 0.33 0.00 58
20260507175957 51 327 10.4 15.6 0.00 0.33 0.00 61
20260507175457 51 307 4.3 12.2 0.00 0.33 0.00 64
20260507174957 50 316 5.2 13.0 0.00 0.33 0.00 63
20260507174457 51 306 7.0 7.8 0.00 0.36 0.00 64
20260507173957 51 264 4.3 8.7 0.00 0.36 0.00 62
20260507173457 51 343 5.2 11.3 0.00 0.36 0.00 64
20260507172957 50 261 7.8 8.7 0.00 0.36 0.00 63
20260507172457 51 300 7.0 12.2 0.00 0.36 0.00 64
20260507171957 50 299 2.6 11.3 0.00 0.36 0.00 66
20260507171457 50 264 5.2 8.7 0.00 0.36 0.00 66
20260507170957 49 253 4.3 13.9 0.00 0.36 0.00 66
20260507170457 49 310 3.5 11.3 0.00 0.36 0.00 65
20260507165957 49 258 6.1 13.0 0.00 0.36 0.00 67
20260507165457 48 334 0.9 8.7 0.00 0.36 0.00 65
20260507164957 49 303 4.3 11.3 0.00 0.36 0.00 64
20260507164457 50 258 3.5 9.6 0.00 0.41 0.00 66
20260507163957 50 310 6.1 13.0 0.00 0.41 0.00 67
20260507163457 49 289 4.3 8.7 0.00 0.41 0.00 71
20260507162957 48 333 1.7 11.3 0.00 0.41 0.00 67
20260507162457 49 240 8.7 8.7 0.00 0.41 0.00 69
20260507161957 48 289 3.5 8.7 0.00 0.41 0.00 69
20260507161457 48 350 6.1 9.6 0.00 0.41 0.00 70
20260507160957 48 354 4.3 8.7 0.00 0.41 0.00 71
20260507160457 48 293 3.5 7.8 0.00 0.41 0.00 71
20260507155957 49 351 3.5 10.4 0.00 0.41 0.00 71
20260507155457 48 262 0.9 7.8 0.00 0.41 0.00 70
20260507154957 48 268 5.2 9.6 0.00 0.41 0.00 74
20260507154457 47 284 9.6 9.6 0.00 0.44 0.00 72
20260507153957 47 326 3.5 4.3 0.00 0.44 0.00 74
20260507153457 47 305 1.7 7.8 0.00 0.44 0.00 74
20260507152957 47 306 7.8 10.4 0.00 0.44 0.00 74
20260507152457 47 316 3.5 9.6 0.00 0.44 0.00 72
20260507151957 47 298 2.6 9.6 0.00 0.44 0.00 78
20260507151457 46 264 2.6 5.2 0.00 0.44 0.00 79
20260507150958 46 316 2.6 7.8 0.00 0.44 0.00 79
20260507150457 46 338 0.9 5.2 0.00 0.44 0.45 82
20260507145957 45 334 1.7 7.8 0.00 0.44 0.45 80
20260507145457 44 296 1.7 8.7 0.00 0.44 0.45 78
20260507144957 45 305 2.6 7.8 0.00 0.44 0.45 81
20260507144457 45 296 1.7 6.1 0.00 0.45 0.45 81
20260507143957 45 307 5.2 7.0 0.00 0.45 0.45 80
20260507143457 45 240 0.9 6.1 0.00 0.45 0.45 83
20260507142957 45 261 2.6 7.8 0.00 0.45 0.45 84
20260507142457 45 296 1.7 7.8 0.00 0.45 0.45 84
20260507141957 45 333 0.9 9.6 0.00 0.45 0.45 84
20260507141457 44 303 2.6 4.3 0.00 0.45 0.45 88
20260507140957 44 292 1.7 5.2 0.00 0.45 0.45 88
20260507140457 44 305 1.7 5.2 0.00 0.45 0.45 87
20260507135957 45 299 2.6 4.3 0.00 0.45 0.45 89
20260507135457 45 270 3.5 7.0 0.00 0.45 0.45 88
20260507134957 45 295 4.3 7.0 0.00 0.45 0.45 90
20260507134457 44 313 2.6 5.2 0.00 0.46 0.45 91
20260507133957 44 300 1.7 4.3 0.00 0.46 0.45 91
20260507133458 43 293 2.6 3.5 0.00 0.46 0.45 92
20260507132957 43 292 2.6 4.3 0.00 0.46 0.45 91
20260507132458 43 312 0.0 4.3 0.00 0.46 0.45 91
20260507131958 44 307 3.5 3.5 0.00 0.46 0.45 92
20260507131458 44 324 1.7 3.5 0.00 0.46 0.45 93
20260507130958 43 265 2.6 5.2 0.00 0.46 0.45 92
20260507130458 43 274 0.9 4.3 0.00 0.46 0.45 93
20260507125958 43 293 2.6 3.5 0.00 0.46 0.45 93
20260507125458 43 303 1.7 4.3 0.00 0.46 0.45 93
20260507124958 43 317 2.6 4.3 0.00 0.46 0.45 93
20260507124458 43 284 1.7 6.1 0.00 0.48 0.45 93
20260507123958 43 284 0.9 6.1 0.00 0.48 0.45 93
20260507123458 43 315 1.7 2.6 0.00 0.48 0.45 94
20260507122958 43 255 0.0 4.3 0.00 0.48 0.45 94
20260507122458 43 299 1.7 6.1 0.00 0.48 0.45 94
20260507121958 43 293 1.7 5.2 0.00 0.48 0.45 94
20260507121458 42 331 4.3 5.2 0.00 0.48 0.45 94
20260507120958 43 303 3.5 7.0 0.00 0.48 0.45 93
20260507120458 43 323 2.6 5.2 0.00 0.48 0.45 94
20260507115958 43 292 2.6 6.1 0.00 0.48 0.45 93
20260507115458 42 310 4.3 4.3 0.00 0.48 0.45 93
20260507114958 43 300 2.6 4.3 0.00 0.48 0.45 94
20260507114458 42 324 0.0 3.5 0.00 0.60 0.45 94
20260507113958 42 319 2.6 4.3 0.00 0.60 0.45 94
20260507113458 42 299 1.7 5.2 0.00 0.60 0.45 94
20260507112958 42 289 0.0 2.6 0.00 0.60 0.45 94
20260507112458 42 255 0.0 5.2 0.00 0.60 0.45 94
20260507111958 42 265 1.7 4.3 0.00 0.60 0.45 95
20260507111459 42 303 0.9 4.3 0.00 0.60 0.45 94
20260507110958 42 300 1.7 2.6 0.00 0.60 0.45 95
20260507110458 42 306 2.6 7.0 0.00 0.60 0.45 95
20260507105958 42 305 2.6 6.1 0.00 0.60 0.45 95
20260507105458 42 302 2.6 5.2 0.00 0.60 0.45 95
20260507104958 42 298 2.6 7.8 0.00 0.60 0.45 95
20260507104458 42 270 4.3 7.8 0.00 0.74 0.45 95
20260507103958 41 312 4.3 7.0 0.00 0.74 0.45 95
20260507103458 42 310 4.3 7.8 0.00 0.74 0.45 95
20260507102958 42 303 4.3 6.1 0.00 0.74 0.45 95
20260507102458 42 299 5.2 7.0 0.00 0.74 0.45 95
20260507101958 42 296 4.3 6.1 0.00 0.74 0.45 95
20260507101458 42 313 3.5 6.1 0.00 0.74 0.45 95
20260507100958 42 305 5.2 6.1 0.00 0.74 0.45 95
20260507100458 42 310 4.3 6.1 0.00 0.74 0.45 95
20260507095958 41 306 6.1 6.1 0.01 0.74 0.45 95
20260507095458 42 305 5.2 8.7 0.01 0.74 0.45 95
20260507094958 41 305 6.1 8.7 0.01 0.74 0.45 95
20260507094458 41 303 4.3 9.6 0.01 0.92 0.45 96
20260507093958 41 315 6.1 10.4 0.01 0.92 0.45 96
20260507093458 41 307 7.8 9.6 0.02 0.92 0.45 96
20260507092958 41 302 6.1 10.4 0.02 0.92 0.45 96
20260507092458 41 312 6.1 11.3 0.03 0.92 0.45 96
20260507091958 41 309 6.1 12.2 0.03 0.92 0.45 96
20260507091458 42 302 6.1 8.7 0.03 0.92 0.45 96
20260507090958 42 327 5.2 8.7 0.04 0.92 0.45 95
20260507090458 42 316 5.2 9.6 0.04 0.92 0.45 95
20260507085958 42 333 6.1 8.7 0.03 0.91 0.44 95
20260507085458 42 337 5.2 11.3 0.04 0.91 0.44 94
20260507084958 43 317 4.3 9.6 0.04 0.91 0.44 94
20260507084458 43 312 4.3 7.0 0.04 0.98 0.44 94
20260507083958 43 344 5.2 8.7 0.04 0.98 0.44 95
20260507083458 44 324 5.2 7.8 0.03 0.97 0.43 95
20260507082958 44 333 5.2 6.1 0.03 0.97 0.43 94
20260507082458 44 330 0.9 4.3 0.03 0.96 0.42 94
20260507081958 44 330 1.7 5.2 0.03 0.96 0.42 94
20260507081458 45 326 1.7 6.1 0.03 0.96 0.42 94
20260507080958 45 354 4.3 6.1 0.02 0.95 0.41 93
20260507080458 45 309 0.9 5.2 0.02 0.95 0.41 93
20260507075958 45 222 2.6 4.3 0.02 0.95 0.41 93
20260507075459 45 274 2.6 6.1 0.01 0.94 0.40 94
20260507074959 45 300 1.7 4.3 0.01 0.94 0.40 94
20260507074459 45 272 0.0 4.3 0.01 0.95 0.40 93
20260507073959 45 296 0.0 1.7 0.01 0.95 0.40 94
20260507073459 45 215 0.0 1.7 0.01 0.95 0.40 93
20260507072959 45 258 0.0 0.9 0.01 0.95 0.40 94
20260507072459 45 315 0.0 3.5 0.01 0.94 0.39 94
20260507071959 45 254 0.0 1.7 0.01 0.94 0.39 94
20260507071459 45 288 0.9 1.7 0.01 0.94 0.39 94
20260507070959 45 299 0.9 2.6 0.01 0.94 0.39 94
20260507070459 44 310 1.7 3.5 0.01 0.94 0.39 94
20260507065959 44 293 0.9 3.5 0.01 0.94 0.39 94
20260507065459 44 317 0.9 3.5 0.01 0.94 0.39 94
20260507064959 44 331 0.9 3.5 0.01 0.94 0.39 94
20260507064459 44 302 0.0 2.6 0.01 0.94 0.39 94
20260507063959 44 248 0.0 2.6 0.01 0.94 0.39 94
20260507063459 44 323 0.0 1.7 0.01 0.94 0.39 94
20260507062959 44 316 0.0 4.3 0.01 0.94 0.39 94
20260507062459 44 292 2.6 5.2 0.00 0.93 0.38 94
20260507061959 44 327 1.7 3.5 0.00 0.93 0.38 94
20260507061459 44 277 1.7 3.5 0.00 0.93 0.38 95
20260507060959 44 320 0.9 6.1 0.00 0.93 0.38 95
20260507060459 44 303 3.5 6.1 0.01 0.93 0.38 94
20260507055959 44 306 2.6 6.1 0.01 0.93 0.38 94
20260507055459 44 302 2.6 3.5 0.01 0.93 0.38 95
20260507054959 44 310 3.5 7.8 0.01 0.93 0.38 95
20260507054459 44 331 2.6 6.1 0.01 0.93 0.38 94
20260507053959 44 323 2.6 6.1 0.01 0.93 0.38 95
20260507053459 44 324 3.5 8.7 0.01 0.93 0.38 95
20260507052959 44 329 3.5 7.0 0.02 0.93 0.38 95
20260507052500 44 296 5.2 7.8 0.02 0.93 0.38 95
20260507051959 44 316 6.1 8.7 0.02 0.93 0.38 95
20260507051459 44 327 7.8 12.2 0.02 0.93 0.38 95
20260507050959 44 289 7.8 11.3 0.02 0.93 0.38 96
20260507050459 44 320 9.6 11.3 0.01 0.92 0.37 96
20260507045959 44 9 2.6 9.6 0.01 0.92 0.37 96
20260507045459 44 324 2.6 9.6 0.01 0.92 0.37 95
20260507044959 44 326 9.6 9.6 0.01 0.92 0.37 96
20260507044459 44 307 3.5 9.6 0.02 0.92 0.37 95